Home > Weather > Enns > Past weeks

Flag for Austria Weather for the Past 2 Weeks in Enns, Upper Austria, Austria

Now
28 °F

Ice fog.


Feels Like: N/A
Forecast: 29 / 43 °F
Wind: N/A

Location: Linz / Hoersching-Flughafen

Current Time: Feb 12, 2016 at 7:43:42 AM

Latest Report: Feb 12, 2016 at 7:00 AM


Visibility: 0 mi

Pressure: 29.79 "Hg

Humidity: 100%

Dew point: 28 °F

Location of EnnsLocation

Historic Weather in Enns — Graph

°F

Enns Temperature Yesterday

Maximum temperature yesterday: 42 °F (at 4:00 PM)
Minimum temperature yesterday: 31 °F (at 11:00 PM)
Average temperature yesterday: 36 °F

High & Low Weather Summary for the Past Weeks

 TemperatureHumidityPressure
High56 °F (Feb 1, 4:00 PM)100% (Jan 29, 4:00 AM)30.47 "Hg (Jan 29, 4:00 AM)
Low26 °F (Feb 12, 5:00 AM)49% (Feb 8, 2:00 PM)29.23 "Hg (Feb 9, 10:00 PM)
Average41 °F83%30.03 "Hg
* Reported Jan 28 7:00 AM — Feb 12 5:00 AM, Enns, Weather by CustomWeather, © 2016

Note: Actual official high and low records may vary slightly from our data, if they occured in-between our weather recording intervals... More about our weather records

Advertising

Enns Weather History for the Previous 24 Hours

 ConditionsComfort  
Time TempWeatherWind HumidityBarometerVisibility
5:00 AM
Fri, Feb 12
26 °FIcy mix. Passing clouds.N/A97%29.80 "Hg2 mi
4:00 AM28 °FPassing clouds.N/A97%29.80 "Hg4 mi
2:00 AM27 °FIcy mix. Passing clouds.16 mph99%29.81 "Hg1 mi
11:00 PM
Thu, Feb 11
31 °FPassing clouds.N/A98%29.81 "Hg4 mi
10:00 PM31 °FPassing clouds.N/A98%29.82 "Hg6 mi
9:00 PM31 °FPassing clouds.N/A96%29.81 "Hg6 mi
8:00 PM33 °FPassing clouds.N/A94%29.81 "Hg9 mi
7:00 PM34 °FClear.N/A91%29.81 "Hg19 mi
6:00 PM37 °FPassing clouds.N/A86%29.79 "Hg25 mi
5:00 PM40 °FPassing clouds.N/A77%29.78 "Hg28 mi
4:00 PM42 °FScattered clouds.3 mph70%29.79 "Hg25 mi
3:00 PM40 °FPartly sunny.7 mph80%29.79 "Hg19 mi
2:00 PM38 °FOvercast.7 mph83%29.80 "Hg28 mi
1:00 PM38 °FOvercast.7 mph81%29.81 "Hg22 mi
12:00 PM38 °FOvercast.6 mph80%29.82 "Hg28 mi
11:00 AM37 °FOvercast.8 mph82%29.82 "Hg28 mi
10:00 AM36 °FOvercast.6 mph84%29.80 "Hg25 mi
9:00 AM35 °FLots of rain. Overcast.7 mph87%29.79 "Hg5 mi
8:00 AM35 °FOvercast.8 mph88%29.76 "Hg13 mi
7:00 AMN/APassing clouds.8 mphN/AN/A14 mi
Weather by CustomWeather, © 2016

See weather overviewHow to use our weather pages